Location: NJAA Observatory
(40.6819°N, 74.8979°W)
Time: 09:52:36
(UTC-04:00)

Cosmos 2263 Rocket - Visible Passes

Search period start: 01 August 2015 00:00
Search period end: 11 August 2015 00:00
Orbit: 823 x 849 km, 71.0° (Epoch: 31 July)

Date Brightness Start Highest point End Pass type
(mag) Time Alt. Az. Time Alt. Az. Time Alt. Az.
01 Aug 2.2 21:49:00 10° S 21:54:24 57° ESE 21:59:54 10° NNE visible
01 Aug 4.4 23:34:26 10° WSW 23:38:48 22° NW 23:43:03 10° N visible
02 Aug 2.3 21:32:24 10° S 21:37:45 52° ESE 21:43:12 10° NNE visible
02 Aug 4.3 23:17:34 10° WSW 23:22:04 24° NW 23:26:29 10° N visible
03 Aug 2.4 21:15:50 10° S 21:21:06 47° ESE 21:26:30 10° NE visible
03 Aug 4.3 23:00:42 10° WSW 23:05:20 26° NW 23:09:55 10° N visible
04 Aug 2.5 20:59:15 10° S 21:04:28 43° ESE 21:09:47 10° NE visible
04 Aug 4.2 22:43:51 10° WSW 22:48:37 27° NW 22:53:21 10° N visible
05 Aug 2.6 20:42:43 10° S 20:47:50 40° ESE 20:53:03 10° NE visible
05 Aug 4.1 22:27:02 10° WSW 22:31:54 29° NW 22:36:46 10° N visible
06 Aug 4.0 22:10:12 10° WSW 22:15:11 32° WNW 22:20:10 10° N visible
07 Aug 5.2 05:20:10 10° N 05:24:02 19° NE 05:28:04 10° E visible
07 Aug 3.9 21:53:24 10° WSW 21:58:29 34° WNW 22:03:34 10° N visible
08 Aug 5.2 05:03:38 10° N 05:07:17 18° NE 05:11:08 10° E visible
08 Aug 3.8 21:36:37 10° SW 21:41:46 37° WNW 21:46:57 10° N visible
09 Aug 5.3 04:47:08 10° N 04:50:33 16° NE 04:54:09 10° E visible
09 Aug 3.7 21:19:49 10° SW 21:25:04 40° WNW 21:30:20 10° N visible
10 Aug 5.4 04:30:39 10° NNE 04:33:48 15° NE 04:37:10 10° E visible
10 Aug 3.6 21:03:04 10° SW 21:08:22 43° WNW 21:13:43 10° N visible
